| time (UTC) | temp C | wind direction | speed KPH | gust KPH | rain 1hr cm | rain 24hr cm | rain mn cm | humidity % | barometer mb |
| 20260510203045 | 24 | 11 | 9.7 | 24.1 | 0.00 | 0.00 | 0.00 | 55 | 1019.4 |
| 20260510201543 | 24 | 38 | 6.4 | 27.4 | 0.00 | 0.00 | 0.00 | 54 | 1019.5 |
| 20260510200043 | 25 | 360 | 11.3 | 29.0 | 0.00 | 0.00 | 0.00 | 54 | 1019.2 |
| 20260510194542 | 25 | 47 | 6.4 | 20.9 | 0.00 | 0.00 | 0.00 | 55 | 1019.2 |
| 20260510193040 | 24 | 36 | 8.0 | 22.5 | 0.00 | 0.00 | 0.00 | 57 | 1019.4 |
| 20260510191546 | 25 | 49 | 8.0 | 22.5 | 0.00 | 0.00 | 0.00 | 57 | 1019.3 |
| 20260510190038 | 24 | 45 | 12.9 | 25.7 | 0.00 | 0.00 | 0.00 | 58 | 1019.2 |
| 20260510184538 | 24 | 44 | 8.0 | 27.4 | 0.00 | 0.00 | 0.00 | 59 | 1019.2 |
| 20260510183035 | 25 | 344 | 22.5 | 30.6 | 0.00 | 0.00 | 0.00 | 58 | 1019.1 |
| 20260510181532 | 24 | 24 | 12.9 | 22.5 | 0.00 | 0.00 | 0.00 | 62 | 1019.0 |
| 20260510180033 | 23 | 52 | 4.8 | 20.9 | 0.00 | 0.00 | 0.00 | 64 | 1019.1 |
| 20260510174532 | 24 | 355 | 8.0 | 20.9 | 0.00 | 0.00 | 0.00 | 65 | 1019.0 |
| 20260510173030 | 24 | 31 | 6.4 | 17.7 | 0.00 | 0.00 | 0.00 | 66 | 1019.3 |
| 20260510171530 | 24 | 49 | 6.4 | 22.5 | 0.00 | 0.00 | 0.00 | 65 | 1019.3 |
| 20260510170028 | 24 | 45 | 11.3 | 20.9 | 0.00 | 0.00 | 0.00 | 65 | 1019.3 |
| 20260510164527 | 24 | 50 | 4.8 | 17.7 | 0.00 | 0.00 | 0.00 | 64 | 1019.4 |
| 20260510163025 | 23 | 36 | 4.8 | 24.1 | 0.00 | 0.00 | 0.00 | 64 | 1019.6 |
| 20260510161523 | 23 | 50 | 4.8 | 12.9 | 0.00 | 0.00 | 0.00 | 64 | 1019.5 |
| 20260510160021 | 23 | 57 | 3.2 | 20.9 | 0.00 | 0.00 | 0.00 | 66 | 1019.4 |
| 20260510154521 | 23 | 47 | 6.4 | 17.7 | 0.00 | 0.00 | 0.00 | 62 | 1019.2 |
| 20260510153020 | 23 | 40 | 3.2 | 17.7 | 0.00 | 0.00 | 0.00 | 63 | 1019.0 |
| 20260510151515 | 23 | 355 | 3.2 | 9.7 | 0.00 | 0.00 | 0.00 | 65 | 1018.9 |
| 20260510150014 | 22 | 338 | 6.4 | 9.7 | 0.00 | 0.00 | 0.00 | 64 | 1018.7 |
| 20260510144518 | 23 | 290 | 4.8 | 8.0 | 0.00 | 0.00 | 0.00 | 63 | 1018.5 |
| 20260510143010 | 22 | 154 | 0.0 | 3.2 | 0.00 | 0.00 | 0.00 | 67 | 1018.4 |
| 20260510141505 | 21 | 154 | 1.6 | 4.8 | 0.00 | 0.00 | 0.00 | 69 | 1018.2 |
| 20260510140002 | 21 | 162 | 3.2 | 8.0 | 0.00 | 0.00 | 0.00 | 72 | 1018.1 |
| 20260510134606 | 20 | 168 | 4.8 | 8.0 | 0.00 | 0.00 | 0.00 | 74 | 1018.3 |
| 20260510133056 | 20 | 163 | 1.6 | 6.4 | 0.00 | 0.00 | 0.00 | 76 | 1018.1 |
| 20260510131553 | 18 | 162 | 0.0 | 1.6 | 0.00 | 0.00 | 0.00 | 79 | 1018.1 |
| 20260510130050 | 18 | 162 | 0.0 | 8.0 | 0.00 | 0.00 | 0.00 | 83 | 1018.0 |
| 20260510124549 | 17 | 161 | 0.0 | 3.2 | 0.00 | 0.00 | 0.00 | 86 | 1018.0 |
| 20260510123049 | 16 | 161 | 0.0 | 3.2 | 0.00 | 0.00 | 0.00 | 88 | 1018.1 |
| 20260510121547 | 15 | 161 | 0.0 | 3.2 | 0.00 | 0.00 | 0.00 | 88 | 1018.0 |
| 20260510120046 | 15 | 161 | 0.0 | 0.0 | 0.00 | 0.00 | 0.00 | 87 | 1018.3 |
| 20260510114545 | 15 | 161 | 0.0 | 0.0 | 0.00 | 0.00 | 0.00 | 87 | 1017.9 |
| 20260510113044 | 14 | 161 | 0.0 | 3.2 | 0.00 | 0.00 | 0.00 | 87 | 1017.7 |
| 20260510111603 | 14 | 161 | 1.6 | 6.4 | 0.00 | 0.00 | 0.00 | 87 | 1017.3 |
| 20260510110039 | 14 | 102 | 1.6 | 3.2 | 0.00 | 0.00 | 0.00 | 86 | 1017.0 |
| 20260510104538 | 15 | 93 | 0.0 | 3.2 | 0.00 | 0.00 | 0.00 | 84 | 1016.6 |
| 20260510103036 | 15 | 92 | 1.6 | 6.4 | 0.00 | 0.00 | 0.00 | 84 | 1016.7 |
| 20260510101534 | 15 | 49 | 3.2 | 9.7 | 0.00 | 0.00 | 0.00 | 84 | 1016.6 |
| 20260510100031 | 15 | 84 | 1.6 | 6.4 | 0.00 | 0.00 | 0.00 | 83 | 1016.6 |
| 20260510094528 | 15 | 140 | 1.6 | 4.8 | 0.00 | 0.00 | 0.00 | 82 | 1016.4 |
| 20260510093042 | 16 | 180 | 0.0 | 0.0 | 0.00 | 0.00 | 0.00 | 81 | 1015.8 |
| 20260510091525 | 16 | 180 | 1.6 | 4.8 | 0.00 | 0.00 | 0.00 | 81 | 1015.8 |
| 20260510090035 | 16 | 175 | 3.2 | 4.8 | 0.00 | 0.00 | 0.00 | 80 | 1015.5 |
| 20260510084522 | 16 | 175 | 0.0 | 3.2 | 0.00 | 0.00 | 0.00 | 79 | 1015.1 |
| 20260510083018 | 16 | 175 | 1.6 | 4.8 | 0.00 | 0.00 | 0.00 | 78 | 1015.1 |
| 20260510081517 | 16 | 174 | 1.6 | 6.4 | 0.00 | 0.00 | 0.00 | 77 | 1015.0 |
| 20260510080016 | 16 | 186 | 1.6 | 8.0 | 0.00 | 0.00 | 0.00 | 78 | 1015.0 |
| 20260510074516 | 16 | 209 | 4.8 | 8.0 | 0.00 | 0.00 | 0.00 | 79 | 1014.9 |
| 20260510073011 | 17 | 207 | 3.2 | 9.7 | 0.00 | 0.00 | 0.00 | 76 | 1014.9 |
| 20260510071510 | 17 | 197 | 4.8 | 8.0 | 0.00 | 0.00 | 0.00 | 76 | 1014.9 |
| 20260510070008 | 17 | 209 | 4.8 | 8.0 | 0.00 | 0.00 | 0.00 | 75 | 1014.9 |
| 20260510064507 | 17 | 221 | 6.4 | 8.0 | 0.00 | 0.00 | 0.00 | 75 | 1015.2 |
| 20260510063005 | 17 | 221 | 4.8 | 8.0 | 0.00 | 0.00 | 0.00 | 73 | 1015.2 |
| 20260510061501 | 18 | 221 | 4.8 | 8.0 | 0.00 | 0.00 | 0.00 | 71 | 1015.1 |
| 20260510060059 | 18 | 221 | 6.4 | 8.0 | 0.00 | 0.00 | 0.00 | 70 | 1015.2 |
| 20260510054558 | 18 | 223 | 9.7 | 11.3 | 0.00 | 0.00 | 0.00 | 69 | 1015.0 |
| 20260510053057 | 18 | 207 | 6.4 | 9.7 | 0.00 | 0.00 | 0.00 | 70 | 1015.0 |
| 20260510051558 | 18 | 213 | 6.4 | 9.7 | 0.00 | 0.00 | 0.00 | 70 | 1014.9 |
| 20260510050056 | 18 | 209 | 6.4 | 11.3 | 0.00 | 0.00 | 0.00 | 68 | 1014.7 |
| 20260510044614 | 18 | 209 | 6.4 | 11.3 | 0.00 | 0.00 | 0.00 | 68 | 1014.6 |
| 20260510043051 | 18 | 213 | 8.0 | 11.3 | 0.00 | 0.00 | 0.00 | 68 | 1014.7 |
| 20260510041552 | 19 | 210 | 8.0 | 11.3 | 0.00 | 0.00 | 0.00 | 64 | 1014.7 |
| 20260510040049 | 20 | 197 | 9.7 | 12.9 | 0.00 | 0.00 | 0.00 | 59 | 1014.7 |
| 20260510034549 | 20 | 184 | 6.4 | 9.7 | 0.00 | 0.00 | 0.00 | 60 | 1014.6 |
| 20260510033047 | 20 | 171 | 4.8 | 8.0 | 0.00 | 0.00 | 0.00 | 59 | 1014.6 |
| 20260510031546 | 20 | 192 | 8.0 | 11.3 | 0.00 | 0.00 | 0.00 | 62 | 1014.6 |
| 20260510030044 | 21 | 211 | 6.4 | 11.3 | 0.00 | 0.00 | 0.00 | 56 | 1014.3 |
| 20260510024543 | 21 | 198 | 8.0 | 11.3 | 0.00 | 0.00 | 0.00 | 54 | 1014.3 |
| 20260510023048 | 22 | 186 | 9.7 | 11.3 | 0.00 | 0.00 | 0.00 | 51 | 1014.2 |
| 20260510021542 | 22 | 180 | 6.4 | 11.3 | 0.00 | 0.00 | 0.00 | 51 | 1014.1 |
| 20260510020040 | 22 | 182 | 6.4 | 11.3 | 0.00 | 0.00 | 0.00 | 55 | 1013.8 |
| 20260510014540 | 22 | 205 | 4.8 | 8.0 | 0.00 | 0.00 | 0.00 | 59 | 1013.5 |
| 20260510013037 | 23 | 210 | 8.0 | 11.3 | 0.00 | 0.00 | 0.00 | 53 | 1013.4 |
| 20260510011538 | 23 | 211 | 6.4 | 9.7 | 0.00 | 0.00 | 0.00 | 53 | 1013.3 |
| 20260510010036 | 24 | 207 | 6.4 | 9.7 | 0.00 | 0.00 | 0.00 | 47 | 1013.0 |
| 20260510004536 | 25 | 218 | 6.4 | 8.0 | 0.00 | 0.00 | 0.00 | 49 | 1012.8 |
| 20260510003034 | 26 | 192 | 3.2 | 8.0 | 0.00 | 0.00 | 0.00 | 40 | 1012.7 |
| 20260510001533 | 27 | 180 | 3.2 | 8.0 | 0.00 | 0.00 | 0.00 | 38 | 1012.5 |
| 20260510000032 | 27 | 189 | 3.2 | 6.4 | 0.00 | 0.00 | 0.00 | 37 | 1012.6 |
| 20260509234531 | 27 | 155 | 3.2 | 9.7 | 0.00 | 0.00 | 0.00 | 35 | 1012.5 |
| 20260509233029 | 27 | 211 | 1.6 | 4.8 | 0.00 | 0.00 | 0.00 | 35 | 1012.4 |
| 20260509231531 | 27 | 216 | 6.4 | 14.5 | 0.00 | 0.00 | 0.00 | 34 | 1012.5 |
| 20260509230026 | 27 | 234 | 8.0 | 14.5 | 0.00 | 0.00 | 0.00 | 36 | 1012.4 |
| 20260509224529 | 27 | 360 | 6.4 | 9.7 | 0.00 | 0.00 | 0.00 | 35 | 1012.4 |
| 20260509223025 | 27 | 279 | 6.4 | 14.5 | 0.00 | 0.00 | 0.00 | 33 | 1012.3 |
| 20260509221526 | 27 | 171 | 3.2 | 14.5 | 0.00 | 0.00 | 0.00 | 35 | 1012.3 |
| 20260509220021 | 27 | 247 | 4.8 | 9.7 | 0.00 | 0.00 | 0.00 | 35 | 1012.3 |
| 20260509214520 | 27 | 232 | 11.3 | 19.3 | 0.00 | 0.00 | 0.00 | 34 | 1012.3 |
| 20260509213017 | 27 | 221 | 0.0 | 9.7 | 0.00 | 0.00 | 0.00 | 35 | 1012.3 |
| 20260509211517 | 27 | 360 | 8.0 | 12.9 | 0.00 | 0.00 | 0.00 | 35 | 1012.2 |
| 20260509210014 | 27 | 360 | 3.2 | 14.5 | 0.00 | 0.00 | 0.00 | 37 | 1012.1 |